Location: Casalecchio di Reno
(44.4760°N, 11.2757°E)
Time: 09:44:31
(UTC+02:00)

AO-73 - Pass Details

Date: 20 June 2024
Orbit: 555 x 624 km, 97.7° (Epoch: 17 July)

Event Time Altitude Azimuth Distance (km) Brightness Sun altitude
Rises 03:11:29 0° 34° (NE) 2,750 ? -17.2°
Reaches altitude 10° 03:14:54 10° 66° (ENE) 1,845 ? -16.9°
Maximum altitude 03:16:30 12° 90° (E) 1,708 ? -16.8°
Drops below altitude 10° 03:18:06 10° 114° (ESE) 1,839 ? -16.6°
Enters shadow 03:20:49 - 141° (SE) 2,516 ? -16.4°
